Wetterdaten: aktuell Sonntag, 09.08.2020 09:44
Datum Zeit Temp. I. Temp. 2m Temp. 5cm Temp. -10cm Feuchte I. Feuchte 2m Luftdruck Regen Wind Richtung Richtung Taupunkt Windchill Windben
09.08.2020 09:44 23,2 C 22,3 C 26,9 C 22,6 C 69 % 71 % 1016,9 hPa 0,0 l/m 0,0 km/h (0 Bft) N 360 16,8 C 22,3 C 0,0 km/h (0 Bft)
09.08.2020 09:42 23,2 C 22,3 C 26,9 C 22,6 C 69 % 71 % 1016,9 hPa 0,0 l/m 0,0 km/h (0 Bft) N 360 16,8 C 22,3 C 0,0 km/h (0 Bft)
09.08.2020 09:40 23,2 C 22,3 C 26,7 C 22,6 C 69 % 71 % 1016,9 hPa 0,0 l/m 0,0 km/h (0 Bft) N 360 16,8 C 22,3 C 0,0 km/h (0 Bft)
09.08.2020 09:38 23,2 C 22,2 C 26,1 C 22,6 C 69 % 71 % 1016,9 hPa 0,0 l/m 0,0 km/h (0 Bft) N 360 16,7 C 22,2 C 0,0 km/h (0 Bft)
09.08.2020 09:36 23,2 C 22,2 C 26,0 C 22,6 C 69 % 71 % 1016,9 hPa 0,0 l/m 0,0 km/h (0 Bft) N 360 16,7 C 22,2 C 0,0 km/h (0 Bft)
09.08.2020 09:34 23,2 C 22,2 C 27,2 C 22,5 C 69 % 71 % 1016,9 hPa 0,0 l/m 0,0 km/h (0 Bft) N 360 16,7 C 22,2 C 0,0 km/h (0 Bft)
09.08.2020 09:32 23,2 C 22,1 C 27,4 C 22,5 C 69 % 72 % 1016,9 hPa 0,0 l/m 0,0 km/h (0 Bft) N 360 16,8 C 22,1 C 0,0 km/h (0 Bft)
09.08.2020 09:30 23,2 C 22,1 C 27,0 C 22,6 C 69 % 71 % 1016,9 hPa 0,0 l/m 0,0 km/h (0 Bft) N 360 16,6 C 22,1 C 0,0 km/h (0 Bft)
09.08.2020 09:28 23,2 C 22,1 C 26,2 C 22,6 C 69 % 72 % 1016,9 hPa 0,0 l/m 0,0 km/h (0 Bft) N 360 16,8 C 22,1 C 0,0 km/h (0 Bft)
09.08.2020 09:26 23,2 C 22,1 C 26,0 C 22,6 C 69 % 72 % 1016,9 hPa 0,0 l/m 0,0 km/h (0 Bft) N 360 16,8 C 22,1 C 0,0 km/h (0 Bft)
09.08.2020 09:24 23,2 C 22,0 C 26,2 C 22,5 C 69 % 73 % 1016,9 hPa 0,0 l/m 0,0 km/h (0 Bft) N 360 16,9 C 22,0 C 0,0 km/h (0 Bft)
09.08.2020 09:22 23,2 C 21,7 C 25,8 C 22,5 C 69 % 74 % 1016,8 hPa 0,0 l/m 0,0 km/h (0 Bft) N 360 16,9 C 21,7 C 0,0 km/h (0 Bft)
09.08.2020 09:20 23,2 C 21,7 C 25,9 C 22,5 C 69 % 74 % 1016,8 hPa 0,0 l/m 0,0 km/h (0 Bft) N 360 16,9 C 21,7 C 0,0 km/h (0 Bft)
09.08.2020 09:18 23,2 C 21,6 C 26,4 C 22,5 C 69 % 73 % 1016,8 hPa 0,0 l/m 0,0 km/h (0 Bft) N 360 16,5 C 21,6 C 0,0 km/h (0 Bft)
09.08.2020 09:16 23,2 C 21,4 C 26,3 C 22,5 C 69 % 73 % 1016,8 hPa 0,0 l/m 0,0 km/h (0 Bft) N 360 16,4 C 21,4 C 0,0 km/h (0 Bft)
09.08.2020 09:14 23,1 C 21,4 C 25,8 C 22,5 C 69 % 73 % 1016,8 hPa 0,0 l/m 0,0 km/h (0 Bft) N 360 16,4 C 21,4 C 0,0 km/h (0 Bft)
09.08.2020 09:12 23,1 C 21,3 C 25,2 C 22,4 C 69 % 73 % 1016,8 hPa 0,0 l/m 0,0 km/h (0 Bft) N 360 16,3 C 21,3 C 0,0 km/h (0 Bft)
09.08.2020 09:10 23,1 C 21,2 C 25,8 C 22,4 C 69 % 73 % 1016,8 hPa 0,0 l/m 0,0 km/h (0 Bft) N 360 16,2 C 21,2 C 0,0 km/h (0 Bft)
09.08.2020 09:08 23,2 C 21,2 C 26,2 C 22,4 C 69 % 73 % 1016,8 hPa 0,0 l/m 0,0 km/h (0 Bft) N 360 16,2 C 21,2 C 0,0 km/h (0 Bft)
09.08.2020 09:06 23,1 C 21,2 C 26,1 C 22,5 C 69 % 74 % 1016,8 hPa 0,0 l/m 0,0 km/h (0 Bft) N 360 16,4 C 21,2 C 0,0 km/h (0 Bft)
09.08.2020 09:04 23,1 C 21,1 C 26,1 C 22,5 C 69 % 75 % 1016,8 hPa 0,0 l/m 0,0 km/h (0 Bft) N 360 16,5 C 21,1 C 0,0 km/h (0 Bft)
09.08.2020 09:02 23,1 C 21,0 C 25,7 C 22,4 C 69 % 75 % 1016,8 hPa 0,0 l/m 0,0 km/h (0 Bft) N 360 16,4 C 21,0 C 0,0 km/h (0 Bft)
09.08.2020 09:00 23,1 C 20,9 C 25,8 C 22,4 C 69 % 76 % 1016,8 hPa 0,0 l/m 0,0 km/h (0 Bft) N 360 16,5 C 20,9 C 0,0 km/h (0 Bft)
09.08.2020 08:58 23,1 C 20,8 C 25,8 C 22,4 C 68 % 77 % 1016,8 hPa 0,0 l/m 0,0 km/h (0 Bft) N 360 16,6 C 20,8 C 0,0 km/h (0 Bft)
09.08.2020 08:56 23,1 C 20,8 C 25,6 C 22,4 C 68 % 77 % 1016,8 hPa 0,0 l/m 0,0 km/h (0 Bft) N 360 16,6 C 20,8 C 0,0 km/h (0 Bft)
09.08.2020 08:54 23,1 C 20,8 C 25,3 C 22,4 C 68 % 77 % 1016,8 hPa 0,0 l/m 0,0 km/h (0 Bft) N 360 16,6 C 20,8 C 0,0 km/h (0 Bft)
09.08.2020 08:52 23,1 C 20,7 C 24,6 C 22,4 C 68 % 78 % 1016,8 hPa 0,0 l/m 0,0 km/h (0 Bft) N 360 16,7 C 20,7 C 0,0 km/h (0 Bft)
09.08.2020 08:50 23,1 C 20,6 C 24,4 C 22,3 C 68 % 79 % 1016,8 hPa 0,0 l/m 0,0 km/h (0 Bft) N 360 16,8 C 20,6 C 0,0 km/h (0 Bft)
09.08.2020 08:48 23,1 C 20,5 C 24,1 C 22,4 C 69 % 78 % 1016,8 hPa 0,0 l/m 0,0 km/h (0 Bft) N 360 16,5 C 20,5 C 0,0 km/h (0 Bft)
09.08.2020 08:46 23,1 C 20,4 C 24,0 C 22,4 C 69 % 79 % 1016,8 hPa 0,0 l/m 0,0 km/h (0 Bft) N 360 16,6 C 20,4 C 0,0 km/h (0 Bft)
09.08.2020 08:44 23,1 C 20,4 C 23,7 C 22,4 C 69 % 79 % 1016,8 hPa 0,0 l/m 0,0 km/h (0 Bft) N 360 16,6 C 20,4 C 0,0 km/h (0 Bft)
09.08.2020 08:42 23,1 C 20,3 C 23,2 C 22,4 C 69 % 80 % 1016,9 hPa 0,0 l/m 0,0 km/h (0 Bft) N 360 16,7 C 20,3 C 0,0 km/h (0 Bft)
09.08.2020 08:40 23,1 C 20,2 C 22,6 C 22,4 C 69 % 80 % 1016,9 hPa 0,0 l/m 0,0 km/h (0 Bft) N 360 16,6 C 20,2 C 0,0 km/h (0 Bft)
09.08.2020 08:38 23,1 C 20,1 C 22,5 C 22,3 C 69 % 80 % 1016,9 hPa 0,0 l/m 0,0 km/h (0 Bft) N 360 16,5 C 20,1 C 0,0 km/h (0 Bft)
09.08.2020 08:36 23,0 C 20,1 C 22,8 C 22,3 C 69 % 81 % 1016,9 hPa 0,0 l/m 0,0 km/h (0 Bft) N 360 16,7 C 20,1 C 0,0 km/h (0 Bft)
09.08.2020 08:34 23,0 C 20,0 C 22,0 C 22,3 C 69 % 82 % 1016,9 hPa 0,0 l/m 0,0 km/h (0 Bft) N 360 16,8 C 20,0 C 0,0 km/h (0 Bft)
09.08.2020 08:32 23,0 C 19,9 C 23,6 C 22,3 C 69 % 83 % 1016,9 hPa 0,0 l/m 0,0 km/h (0 Bft) N 360 16,9 C 19,9 C 0,0 km/h (0 Bft)
09.08.2020 08:30 23,0 C 19,7 C 23,3 C 22,3 C 69 % 83 % 1016,9 hPa 0,0 l/m 0,0 km/h (0 Bft) N 360 16,7 C 19,7 C 0,0 km/h (0 Bft)
09.08.2020 08:28 23,0 C 19,7 C 23,6 C 22,3 C 69 % 84 % 1016,9 hPa 0,0 l/m 0,0 km/h (0 Bft) N 360 16,9 C 19,7 C 0,0 km/h (0 Bft)
09.08.2020 08:26 23,0 C 19,6 C 22,8 C 22,3 C 69 % 85 % 1016,9 hPa 0,0 l/m 0,0 km/h (0 Bft) N 360 17,0 C 19,6 C 0,0 km/h (0 Bft)
09.08.2020 08:24 23,0 C 19,4 C 22,3 C 22,3 C 69 % 85 % 1016,9 hPa 0,0 l/m 0,0 km/h (0 Bft) N 360 16,8 C 19,4 C 0,0 km/h (0 Bft)
09.08.2020 08:22 23,0 C 19,3 C 21,7 C 22,3 C 69 % 86 % 1016,9 hPa 0,0 l/m 0,0 km/h (0 Bft) N 360 16,9 C 19,3 C 0,0 km/h (0 Bft)
09.08.2020 08:20 23,0 C 19,3 C 22,1 C 22,3 C 69 % 87 % 1016,9 hPa 0,0 l/m 0,0 km/h (0 Bft) N 360 17,1 C 19,3 C 0,0 km/h (0 Bft)
09.08.2020 08:18 22,9 C 19,1 C 22,8 C 22,3 C 69 % 87 % 1016,9 hPa 0,0 l/m 0,0 km/h (0 Bft) N 360 16,9 C 19,1 C 0,0 km/h (0 Bft)
09.08.2020 08:16 22,9 C 19,0 C 22,5 C 22,3 C 69 % 87 % 1016,9 hPa 0,0 l/m 0,0 km/h (0 Bft) N 360 16,8 C 19,0 C 0,0 km/h (0 Bft)
09.08.2020 08:14 22,9 C 18,9 C 22,6 C 22,3 C 69 % 87 % 1016,9 hPa 0,0 l/m 0,0 km/h (0 Bft) N 360 16,7 C 18,9 C 0,0 km/h (0 Bft)
09.08.2020 08:12 22,9 C 18,8 C 22,2 C 22,3 C 69 % 87 % 1016,9 hPa 0,0 l/m 0,0 km/h (0 Bft) N 360 16,6 C 18,8 C 0,0 km/h (0 Bft)
09.08.2020 08:10 22,9 C 18,7 C 21,8 C 22,2 C 69 % 87 % 1016,9 hPa 0,0 l/m 0,0 km/h (0 Bft) N 360 16,5 C 18,7 C 0,0 km/h (0 Bft)
09.08.2020 08:08 22,9 C 18,6 C 21,5 C 22,2 C 69 % 87 % 1016,9 hPa 0,0 l/m 0,0 km/h (0 Bft) N 360 16,4 C 18,6 C 0,0 km/h (0 Bft)
09.08.2020 08:06 22,9 C 18,4 C 20,6 C 22,2 C 69 % 87 % 1016,9 hPa 0,0 l/m 0,0 km/h (0 Bft) N 360 16,2 C 18,4 C 0,0 km/h (0 Bft)
09.08.2020 08:04 22,9 C 18,1 C 19,5 C 22,3 C 69 % 87 % 1016,9 hPa 0,0 l/m 0,0 km/h (0 Bft) N 360 15,9 C 18,1 C 0,0 km/h (0 Bft)
09.08.2020 08:02 22,8 C 18,0 C 19,0 C 22,3 C 69 % 87 % 1016,8 hPa 0,0 l/m 0,0 km/h (0 Bft) N 360 15,8 C 18,0 C 0,0 km/h (0 Bft)
09.08.2020 08:00 22,9 C 17,9 C 18,8 C 22,3 C 69 % 87 % 1016,8 hPa 0,0 l/m 0,0 km/h (0 Bft) N 360 15,7 C 17,9 C 0,0 km/h (0 Bft)
09.08.2020 07:58 22,8 C 17,8 C 18,7 C 22,3 C 69 % 87 % 1016,8 hPa 0,0 l/m 0,0 km/h (0 Bft) N 360 15,6 C 17,8 C 0,0 km/h (0 Bft)
09.08.2020 07:56 22,8 C 17,6 C 18,2 C 22,3 C 69 % 87 % 1016,8 hPa 0,0 l/m 0,0 km/h (0 Bft) N 360 15,4 C 17,6 C 0,0 km/h (0 Bft)
09.08.2020 07:54 22,8 C 17,5 C 18,1 C 22,3 C 69 % 87 % 1016,8 hPa 0,0 l/m 0,0 km/h (0 Bft) N 360 15,3 C 17,5 C 0,0 km/h (0 Bft)
09.08.2020 07:52 22,8 C 17,3 C 18,0 C 22,2 C 69 % 87 % 1016,8 hPa 0,0 l/m 0,0 km/h (0 Bft) N 360 15,1 C 17,3 C 0,0 km/h (0 Bft)
09.08.2020 07:50 22,8 C 17,1 C 18,0 C 22,2 C 69 % 87 % 1016,8 hPa 0,0 l/m 0,0 km/h (0 Bft) N 360 14,9 C 17,1 C 0,0 km/h (0 Bft)
09.08.2020 07:48 22,8 C 16,9 C 17,8 C 22,2 C 69 % 87 % 1016,8 hPa 0,0 l/m 0,0 km/h (0 Bft) N 360 14,7 C 16,9 C 0,0 km/h (0 Bft)
09.08.2020 07:46 22,8 C 16,6 C 17,5 C 22,2 C 69 % 87 % 1016,8 hPa 0,0 l/m 0,0 km/h (0 Bft) N 360 14,4 C 16,6 C 0,0 km/h (0 Bft)
09.08.2020 07:44 22,8 C 16,3 C 17,5 C 22,2 C 68 % 87 % 1016,8 hPa 0,0 l/m 0,0 km/h (0 Bft) N 360 14,1 C 16,3 C 0,0 km/h (0 Bft)
09.08.2020 07:42 22,8 C 16,3 C 17,4 C 22,3 C 68 % 87 % 1016,6 hPa 0,0 l/m 0,0 km/h (0 Bft) N 360 14,1 C 16,3 C 0,0 km/h (0 Bft)
09.08.2020 07:40 22,8 C 16,1 C 17,4 C 22,3 C 68 % 87 % 1016,6 hPa 0,0 l/m 0,0 km/h (0 Bft) N 360 13,9 C 16,1 C 0,0 km/h (0 Bft)
09.08.2020 07:38 22,8 C 16,0 C 17,3 C 22,3 C 68 % 87 % 1016,6 hPa 0,0 l/m 0,0 km/h (0 Bft) N 360 13,8 C 16,0 C 0,0 km/h (0 Bft)
09.08.2020 07:36 22,8 C 15,9 C 17,2 C 22,3 C 68 % 87 % 1016,6 hPa 0,0 l/m 0,0 km/h (0 Bft) N 360 13,7 C 15,9 C 0,0 km/h (0 Bft)
09.08.2020 07:34 22,8 C 15,8 C 17,1 C 22,3 C 68 % 87 % 1016,6 hPa 0,0 l/m 0,0 km/h (0 Bft) N 360 13,6 C 15,8 C 0,0 km/h (0 Bft)
09.08.2020 07:32 22,7 C 15,6 C 17,1 C 22,3 C 68 % 87 % 1016,6 hPa 0,0 l/m 0,0 km/h (0 Bft) N 360 13,4 C 15,6 C 0,0 km/h (0 Bft)
09.08.2020 07:30 22,7 C 15,5 C 16,9 C 22,3 C 68 % 87 % 1016,6 hPa 0,0 l/m 0,0 km/h (0 Bft) N 360 13,3 C 15,5 C 0,0 km/h (0 Bft)
09.08.2020 07:28 22,7 C 15,4 C 16,6 C 22,3 C 68 % 87 % 1016,6 hPa 0,0 l/m 0,0 km/h (0 Bft) N 360 13,2 C 15,4 C 0,0 km/h (0 Bft)
09.08.2020 07:26 22,7 C 15,2 C 16,6 C 22,3 C 68 % 87 % 1016,6 hPa 0,0 l/m 0,0 km/h (0 Bft) N 360 13,0 C 15,2 C 0,0 km/h (0 Bft)
09.08.2020 07:24 22,7 C 15,0 C 16,4 C 22,3 C 68 % 87 % 1016,6 hPa 0,0 l/m 0,0 km/h (0 Bft) N 360 12,9 C 15,0 C 0,0 km/h (0 Bft)
09.08.2020 07:22 22,6 C 14,9 C 16,2 C 22,3 C 68 % 87 % 1016,4 hPa 0,0 l/m 0,0 km/h (0 Bft) N 360 12,8 C 14,9 C 0,0 km/h (0 Bft)
09.08.2020 07:20 22,6 C 14,8 C 16,1 C 22,3 C 68 % 87 % 1016,4 hPa 0,0 l/m 0,0 km/h (0 Bft) N 360 12,7 C 14,8 C 0,0 km/h (0 Bft)
09.08.2020 07:18 22,6 C 14,7 C 16,0 C 22,3 C 68 % 87 % 1016,4 hPa 0,0 l/m 0,0 km/h (0 Bft) N 360 12,6 C 14,7 C 0,0 km/h (0 Bft)
09.08.2020 07:16 22,6 C 14,5 C 15,8 C 22,3 C 68 % 87 % 1016,4 hPa 0,0 l/m 0,0 km/h (0 Bft) N 360 12,4 C 14,5 C 0,0 km/h (0 Bft)
09.08.2020 07:14 22,6 C 14,4 C 15,7 C 22,3 C 68 % 87 % 1016,4 hPa 0,0 l/m 0,0 km/h (0 Bft) N 360 12,3 C 14,4 C 0,0 km/h (0 Bft)
09.08.2020 07:12 22,6 C 14,3 C 15,5 C 22,3 C 68 % 87 % 1016,4 hPa 0,0 l/m 0,0 km/h (0 Bft) N 360 12,2 C 14,3 C 0,0 km/h (0 Bft)
09.08.2020 07:10 22,6 C 14,2 C 15,4 C 22,3 C 68 % 87 % 1016,4 hPa 0,0 l/m 0,0 km/h (0 Bft) N 360 12,1 C 14,2 C 0,0 km/h (0 Bft)
09.08.2020 07:08 22,6 C 14,1 C 15,2 C 22,3 C 68 % 87 % 1016,4 hPa 0,0 l/m 0,0 km/h (0 Bft) N 360 12,0 C 14,1 C 0,0 km/h (0 Bft)
09.08.2020 07:06 22,6 C 13,9 C 15,1 C 22,3 C 68 % 87 % 1016,4 hPa 0,0 l/m 0,0 km/h (0 Bft) N 360 11,8 C 13,9 C 0,0 km/h (0 Bft)
09.08.2020 07:03 22,5 C 13,8 C 14,9 C 22,3 C 68 % 87 % 1016,4 hPa 0,0 l/m 0,0 km/h (0 Bft) N 360 11,7 C 13,8 C 0,0 km/h (0 Bft)
09.08.2020 07:00 22,5 C 13,5 C 14,9 C 22,3 C 68 % 87 % 1016,4 hPa 0,0 l/m 0,0 km/h (0 Bft) N 360 11,4 C 13,5 C 0,0 km/h (0 Bft)
09.08.2020 06:58 22,5 C 13,5 C 14,8 C 22,3 C 68 % 87 % 1016,4 hPa 0,0 l/m 0,0 km/h (0 Bft) N 360 11,4 C 13,5 C 0,0 km/h (0 Bft)
09.08.2020 06:56 22,6 C 13,5 C 14,8 C 22,3 C 68 % 87 % 1016,4 hPa 0,0 l/m 0,0 km/h (0 Bft) N 360 11,4 C 13,5 C 0,0 km/h (0 Bft)
09.08.2020 06:54 22,5 C 13,4 C 14,7 C 22,4 C 68 % 87 % 1016,4 hPa 0,0 l/m 0,0 km/h (0 Bft) N 360 11,3 C 13,4 C 0,0 km/h (0 Bft)
09.08.2020 06:52 22,5 C 13,3 C 14,6 C 22,4 C 68 % 87 % 1016,4 hPa 0,0 l/m 0,0 km/h (0 Bft) N 360 11,2 C 13,3 C 0,0 km/h (0 Bft)
09.08.2020 06:50 22,5 C 13,3 C 14,5 C 22,4 C 68 % 87 % 1016,4 hPa 0,0 l/m 0,0 km/h (0 Bft) N 360 11,2 C 13,3 C 0,0 km/h (0 Bft)
09.08.2020 06:48 22,5 C 13,2 C 14,4 C 22,4 C 68 % 87 % 1016,4 hPa 0,0 l/m 0,0 km/h (0 Bft) N 360 11,1 C 13,2 C 0,0 km/h (0 Bft)
09.08.2020 06:46 22,5 C 13,2 C 14,3 C 22,4 C 68 % 87 % 1016,4 hPa 0,0 l/m 0,0 km/h (0 Bft) N 360 11,1 C 13,2 C 0,0 km/h (0 Bft)
09.08.2020 06:44 22,4 C 13,1 C 14,2 C 22,4 C 68 % 87 % 1016,4 hPa 0,0 l/m 0,0 km/h (0 Bft) N 360 11,0 C 13,1 C 0,0 km/h (0 Bft)
09.08.2020 06:42 22,4 C 13,1 C 14,0 C 22,4 C 68 % 87 % 1016,2 hPa 0,0 l/m 0,0 km/h (0 Bft) N 360 11,0 C 13,1 C 0,0 km/h (0 Bft)
09.08.2020 06:40 22,4 C 13,0 C 14,0 C 22,4 C 68 % 87 % 1016,2 hPa 0,0 l/m 0,0 km/h (0 Bft) N 360 10,9 C 13,0 C 0,0 km/h (0 Bft)
09.08.2020 06:38 22,4 C 13,0 C 13,9 C 22,4 C 68 % 87 % 1016,2 hPa 0,0 l/m 0,0 km/h (0 Bft) N 360 10,9 C 13,0 C 0,0 km/h (0 Bft)
09.08.2020 06:36 22,5 C 12,9 C 14,0 C 22,4 C 68 % 88 % 1016,2 hPa 0,0 l/m 0,0 km/h (0 Bft) N 360 11,0 C 12,9 C 0,0 km/h (0 Bft)
09.08.2020 06:34 22,4 C 12,9 C 13,9 C 22,4 C 68 % 88 % 1016,2 hPa 0,0 l/m 0,0 km/h (0 Bft) N 360 11,0 C 12,9 C 0,0 km/h (0 Bft)
09.08.2020 06:32 22,4 C 12,9 C 13,7 C 22,4 C 68 % 88 % 1016,2 hPa 0,0 l/m 0,0 km/h (0 Bft) N 360 11,0 C 12,9 C 0,0 km/h (0 Bft)
09.08.2020 06:30 22,5 C 12,9 C 13,6 C 22,4 C 68 % 88 % 1016,2 hPa 0,0 l/m 0,0 km/h (0 Bft) N 360 11,0 C 12,9 C 0,0 km/h (0 Bft)
09.08.2020 06:28 22,4 C 12,8 C 13,5 C 22,4 C 68 % 88 % 1016,2 hPa 0,0 l/m 0,0 km/h (0 Bft) N 360 10,9 C 12,8 C 0,0 km/h (0 Bft)
09.08.2020 06:26 22,4 C 12,8 C 13,3 C 22,4 C 68 % 88 % 1016,2 hPa 0,0 l/m 0,0 km/h (0 Bft) N 360 10,9 C 12,8 C 0,0 km/h (0 Bft)
09.08.2020 06:24 22,5 C 12,8 C 13,3 C 22,4 C 68 % 88 % 1016,2 hPa 0,0 l/m 0,0 km/h (0 Bft) N 360 10,9 C 12,8 C 0,0 km/h (0 Bft)
09.08.2020 06:22 22,5 C 12,8 C 13,4 C 22,5 C 68 % 88 % 1016,2 hPa 0,0 l/m 0,0 km/h (0 Bft) N 360 10,9 C 12,8 C 0,0 km/h (0 Bft)
09.08.2020 06:20 22,5 C 12,8 C 13,3 C 22,5 C 68 % 88 % 1016,2 hPa 0,0 l/m 0,0 km/h (0 Bft) N 360 10,9 C 12,8 C 0,0 km/h (0 Bft)
09.08.2020 06:18 22,5 C 12,8 C 13,4 C 22,5 C 68 % 88 % 1016,2 hPa 0,0 l/m 0,0 km/h (0 Bft) N 360 10,9 C 12,8 C 0,0 km/h (0 Bft)
09.08.2020 06:16 22,5 C 12,8 C 13,3 C 22,5 C 68 % 88 % 1016,2 hPa 0,0 l/m 0,0 km/h (0 Bft) N 360 10,9 C 12,8 C 0,0 km/h (0 Bft)
09.08.2020 06:14 22,5 C 12,8 C 13,3 C 22,5 C 68 % 88 % 1016,2 hPa 0,0 l/m 0,0 km/h (0 Bft) N 360 10,9 C 12,8 C 0,0 km/h (0 Bft)
09.08.2020 06:12 22,5 C 12,8 C 13,2 C 22,5 C 68 % 88 % 1016,2 hPa 0,0 l/m 0,0 km/h (0 Bft) N 360 10,9 C 12,8 C 0,0 km/h (0 Bft)
09.08.2020 06:10 22,5 C 12,8 C 13,0 C 22,5 C 68 % 88 % 1016,2 hPa 0,0 l/m 0,0 km/h (0 Bft) N 360 10,9 C 12,8 C 0,0 km/h (0 Bft)
09.08.2020 06:08 22,5 C 12,8 C 12,9 C 22,5 C 68 % 88 % 1016,2 hPa 0,0 l/m 0,0 km/h (0 Bft) N 360 10,9 C 12,8 C 0,0 km/h (0 Bft)
09.08.2020 06:06 22,5 C 12,9 C 12,9 C 22,5 C 68 % 88 % 1016,2 hPa 0,0 l/m 0,0 km/h (0 Bft) N 360 11,0 C 12,9 C 0,0 km/h (0 Bft)
09.08.2020 06:04 22,5 C 12,9 C 12,8 C 22,5 C 68 % 88 % 1016,2 hPa 0,0 l/m 0,0 km/h (0 Bft) N 360 11,0 C 12,9 C 0,0 km/h (0 Bft)
09.08.2020 06:02 22,5 C 12,9 C 12,9 C 22,5 C 68 % 88 % 1016,2 hPa 0,0 l/m 0,0 km/h (0 Bft) N 360 11,0 C 12,9 C 0,0 km/h (0 Bft)
09.08.2020 06:00 22,5 C 12,9 C 12,9 C 22,5 C 68 % 88 % 1016,2 hPa 0,0 l/m 0,0 km/h (0 Bft) N 360 11,0 C 12,9 C 0,0 km/h (0 Bft)
09.08.2020 05:58 22,5 C 13,0 C 13,1 C 22,6 C 68 % 87 % 1016,2 hPa 0,0 l/m 0,0 km/h (0 Bft) N 360 10,9 C 13,0 C 0,0 km/h (0 Bft)
09.08.2020 05:56 22,5 C 13,0 C 13,2 C 22,6 C 68 % 87 % 1016,2 hPa 0,0 l/m 0,0 km/h (0 Bft) N 360 10,9 C 13,0 C 0,0 km/h (0 Bft)
09.08.2020 05:54 22,5 C 13,0 C 13,2 C 22,6 C 68 % 87 % 1016,2 hPa 0,0 l/m 0,0 km/h (0 Bft) N 360 10,9 C 13,0 C 0,0 km/h (0 Bft)
09.08.2020 05:52 22,6 C 13,0 C 13,2 C 22,6 C 68 % 87 % 1016,2 hPa 0,0 l/m 0,0 km/h (0 Bft) N 360 10,9 C 13,0 C 0,0 km/h (0 Bft)
09.08.2020 05:50 22,6 C 13,0 C 13,0 C 22,6 C 68 % 87 % 1016,2 hPa 0,0 l/m 0,0 km/h (0 Bft) N 360 10,9 C 13,0 C 0,0 km/h (0 Bft)
09.08.2020 05:48 22,6 C 13,0 C 13,1 C 22,6 C 68 % 87 % 1016,2 hPa 0,0 l/m 0,0 km/h (0 Bft) N 360 10,9 C 13,0 C 0,0 km/h (0 Bft)
09.08.2020 05:46 22,6 C 13,0 C 13,2 C 22,6 C 68 % 87 % 1016,2 hPa 0,0 l/m 0,0 km/h (0 Bft) N 360 10,9 C 13,0 C 0,0 km/h (0 Bft)
09.08.2020 05:44 22,6 C 13,0 C 13,2 C 22,6 C 68 % 87 % 1016,2 hPa 0,0 l/m 0,0 km/h (0 Bft) N 360 10,9 C 13,0 C 0,0 km/h (0 Bft)
09.08.2020 05:42 22,6 C 13,0 C 13,3 C 22,6 C 68 % 87 % 1016,1 hPa 0,0 l/m 0,0 km/h (0 Bft) N 360 10,9 C 13,0 C 0,0 km/h (0 Bft)
09.08.2020 05:40 22,6 C 13,0 C 13,3 C 22,6 C 68 % 87 % 1016,1 hPa 0,0 l/m 0,0 km/h (0 Bft) N 360 10,9 C 13,0 C 0,0 km/h (0 Bft)
09.08.2020 05:38 22,6 C 13,1 C 13,4 C 22,6 C 68 % 87 % 1016,1 hPa 0,0 l/m 0,0 km/h (0 Bft) N 360 11,0 C 13,1 C 0,0 km/h (0 Bft)
09.08.2020 05:36 22,6 C 13,1 C 13,5 C 22,7 C 68 % 87 % 1016,1 hPa 0,0 l/m 0,0 km/h (0 Bft) N 360 11,0 C 13,1 C 0,0 km/h (0 Bft)
09.08.2020 05:34 22,6 C 13,1 C 13,4 C 22,7 C 68 % 87 % 1016,1 hPa 0,0 l/m 0,0 km/h (0 Bft) N 360 11,0 C 13,1 C 0,0 km/h (0 Bft)
09.08.2020 05:32 22,6 C 13,1 C 13,3 C 22,7 C 68 % 87 % 1016,1 hPa 0,0 l/m 0,0 km/h (0 Bft) N 360 11,0 C 13,1 C 0,0 km/h (0 Bft)
09.08.2020 05:30 22,6 C 13,1 C 13,3 C 22,7 C 68 % 87 % 1016,1 hPa 0,0 l/m 0,0 km/h (0 Bft) N 360 11,0 C 13,1 C 0,0 km/h (0 Bft)
09.08.2020 05:28 22,6 C 13,1 C 13,3 C 22,7 C 68 % 87 % 1016,1 hPa 0,0 l/m 0,0 km/h (0 Bft) N 360 11,0 C 13,1 C 0,0 km/h (0 Bft)
09.08.2020 05:26 22,6 C 13,1 C 13,3 C 22,7 C 68 % 87 % 1016,1 hPa 0,0 l/m 0,0 km/h (0 Bft) N 360 11,0 C 13,1 C 0,0 km/h (0 Bft)
09.08.2020 05:24 22,6 C 13,1 C 13,2 C 22,7 C 68 % 87 % 1016,1 hPa 0,0 l/m 0,0 km/h (0 Bft) N 360 11,0 C 13,1 C 0,0 km/h (0 Bft)
09.08.2020 05:22 22,6 C 13,1 C 13,1 C 22,7 C 68 % 87 % 1016,1 hPa 0,0 l/m 0,0 km/h (0 Bft) N 360 11,0 C 13,1 C 0,0 km/h (0 Bft)
09.08.2020 05:20 22,6 C 13,1 C 13,1 C 22,7 C 68 % 87 % 1016,1 hPa 0,0 l/m 0,0 km/h (0 Bft) N 360 11,0 C 13,1 C 0,0 km/h (0 Bft)
09.08.2020 05:18 22,6 C 13,1 C 13,2 C 22,7 C 68 % 87 % 1016,1 hPa 0,0 l/m 0,0 km/h (0 Bft) N 360 11,0 C 13,1 C 0,0 km/h (0 Bft)
09.08.2020 05:16 22,6 C 13,1 C 13,2 C 22,7 C 68 % 87 % 1016,1 hPa 0,0 l/m 0,0 km/h (0 Bft) N 360 11,0 C 13,1 C 0,0 km/h (0 Bft)
09.08.2020 05:14 22,6 C 13,1 C 13,3 C 22,8 C 68 % 87 % 1016,1 hPa 0,0 l/m 0,0 km/h (0 Bft) N 360 11,0 C 13,1 C 0,0 km/h (0 Bft)
09.08.2020 05:12 22,6 C 13,1 C 13,4 C 22,8 C 68 % 87 % 1016,1 hPa 0,0 l/m 0,0 km/h (0 Bft) N 360 11,0 C 13,1 C 0,0 km/h (0 Bft)
09.08.2020 05:10 22,6 C 13,1 C 13,5 C 22,8 C 68 % 87 % 1016,1 hPa 0,0 l/m 0,0 km/h (0 Bft) N 360 11,0 C 13,1 C 0,0 km/h (0 Bft)
09.08.2020 05:08 22,6 C 13,1 C 13,4 C 22,8 C 68 % 87 % 1016,1 hPa 0,0 l/m 0,0 km/h (0 Bft) N 360 11,0 C 13,1 C 0,0 km/h (0 Bft)
09.08.2020 05:06 22,6 C 13,1 C 13,3 C 22,8 C 68 % 86 % 1016,1 hPa 0,0 l/m 0,0 km/h (0 Bft) N 360 10,8 C 13,1 C 0,0 km/h (0 Bft)
09.08.2020 05:04 22,6 C 13,2 C 13,4 C 22,8 C 68 % 86 % 1016,1 hPa 0,0 l/m 0,0 km/h (0 Bft) N 360 10,9 C 13,2 C 0,0 km/h (0 Bft)
09.08.2020 05:02 22,6 C 13,2 C 13,3 C 22,8 C 68 % 86 % 1016,1 hPa 0,0 l/m 0,0 km/h (0 Bft) N 360 10,9 C 13,2 C 0,0 km/h (0 Bft)
09.08.2020 05:00 22,6 C 13,2 C 13,4 C 22,8 C 68 % 86 % 1016,1 hPa 0,0 l/m 0,0 km/h (0 Bft) N 360 10,9 C 13,2 C 0,0 km/h (0 Bft)
09.08.2020 04:58 22,6 C 13,2 C 13,5 C 22,8 C 68 % 86 % 1016,1 hPa 0,0 l/m 0,0 km/h (0 Bft) N 360 10,9 C 13,2 C 0,0 km/h (0 Bft)
09.08.2020 04:56 22,6 C 13,3 C 13,3 C 22,8 C 68 % 86 % 1016,1 hPa 0,0 l/m 0,0 km/h (0 Bft) N 360 11,0 C 13,3 C 0,0 km/h (0 Bft)
09.08.2020 04:54 22,6 C 13,3 C 13,2 C 22,8 C 68 % 86 % 1016,1 hPa 0,0 l/m 0,0 km/h (0 Bft) N 360 11,0 C 13,3 C 0,0 km/h (0 Bft)
09.08.2020 04:52 22,6 C 13,3 C 13,4 C 22,9 C 68 % 86 % 1016,1 hPa 0,0 l/m 0,0 km/h (0 Bft) N 360 11,0 C 13,3 C 0,0 km/h (0 Bft)
09.08.2020 04:50 22,6 C 13,3 C 13,4 C 22,9 C 68 % 86 % 1016,1 hPa 0,0 l/m 0,0 km/h (0 Bft) N 360 11,0 C 13,3 C 0,0 km/h (0 Bft)
09.08.2020 04:48 22,6 C 13,4 C 13,4 C 22,9 C 68 % 86 % 1016,1 hPa 0,0 l/m 0,0 km/h (0 Bft) N 360 11,1 C 13,4 C 0,0 km/h (0 Bft)
09.08.2020 04:46 22,6 C 13,4 C 13,3 C 22,9 C 68 % 86 % 1016,1 hPa 0,0 l/m 0,0 km/h (0 Bft) N 360 11,1 C 13,4 C 0,0 km/h (0 Bft)
09.08.2020 04:44 22,6 C 13,4 C 13,2 C 22,9 C 68 % 86 % 1016,1 hPa 0,0 l/m 0,0 km/h (0 Bft) N 360 11,1 C 13,4 C 0,0 km/h (0 Bft)
09.08.2020 04:42 22,6 C 13,5 C 13,3 C 22,9 C 68 % 86 % 1016,2 hPa 0,0 l/m 0,0 km/h (0 Bft) N 360 11,2 C 13,5 C 0,0 km/h (0 Bft)
09.08.2020 04:40 22,6 C 13,5 C 13,4 C 22,9 C 68 % 86 % 1016,2 hPa 0,0 l/m 0,0 km/h (0 Bft) N 360 11,2 C 13,5 C 0,0 km/h (0 Bft)
09.08.2020 04:38 22,6 C 13,5 C 13,3 C 22,9 C 68 % 86 % 1016,2 hPa 0,0 l/m 0,0 km/h (0 Bft) N 360 11,2 C 13,5 C 0,0 km/h (0 Bft)
09.08.2020 04:36 22,6 C 13,5 C 13,5 C 22,9 C 68 % 86 % 1016,2 hPa 0,0 l/m 0,0 km/h (0 Bft) N 360 11,2 C 13,5 C 0,0 km/h (0 Bft)
09.08.2020 04:34 22,6 C 13,5 C 13,5 C 22,9 C 68 % 86 % 1016,2 hPa 0,0 l/m 0,0 km/h (0 Bft) N 360 11,2 C 13,5 C 0,0 km/h (0 Bft)
09.08.2020 04:32 22,6 C 13,5 C 13,5 C 22,9 C 68 % 86 % 1016,2 hPa 0,0 l/m 1,1 km/h (1 Bft) N 360 11,2 C 13,5 C 0,0 km/h (0 Bft)
09.08.2020 04:30 22,6 C 13,5 C 13,5 C 23,0 C 68 % 86 % 1016,2 hPa 0,0 l/m 1,1 km/h (1 Bft) N 360 11,2 C 13,5 C 0,0 km/h (0 Bft)
09.08.2020 04:28 22,6 C 13,5 C 13,6 C 23,0 C 68 % 86 % 1016,2 hPa 0,0 l/m 1,1 km/h (1 Bft) N 360 11,2 C 13,5 C 0,0 km/h (0 Bft)
09.08.2020 04:26 22,6 C 13,5 C 13,6 C 23,0 C 68 % 86 % 1016,2 hPa 0,0 l/m 1,1 km/h (1 Bft) N 360 11,2 C 13,5 C 0,0 km/h (0 Bft)
09.08.2020 04:24 22,7 C 13,6 C 13,6 C 23,0 C 68 % 86 % 1016,2 hPa 0,0 l/m 1,1 km/h (1 Bft) N 360 11,3 C 13,6 C 0,0 km/h (0 Bft)
09.08.2020 04:22 22,7 C 13,6 C 13,5 C 23,0 C 68 % 86 % 1016,2 hPa 0,0 l/m 1,1 km/h (1 Bft) N 360 11,3 C 13,6 C 0,0 km/h (0 Bft)
09.08.2020 04:20 22,7 C 13,6 C 13,5 C 23,0 C 68 % 86 % 1016,2 hPa 0,0 l/m 1,1 km/h (1 Bft) N 360 11,3 C 13,6 C 0,0 km/h (0 Bft)
09.08.2020 04:18 22,7 C 13,6 C 13,4 C 23,0 C 68 % 86 % 1016,2 hPa 0,0 l/m 1,1 km/h (1 Bft) N 360 11,3 C 13,6 C 2,5 km/h (1 Bft)
09.08.2020 04:16 22,7 C 13,6 C 13,4 C 23,0 C 68 % 86 % 1016,2 hPa 0,0 l/m 0,8 km/h (0 Bft) N-NO 22 11,3 C 13,6 C 2,5 km/h (1 Bft)
09.08.2020 04:14 22,7 C 13,7 C 13,4 C 23,0 C 68 % 86 % 1016,2 hPa 0,0 l/m 0,8 km/h (0 Bft) N 360 11,4 C 13,7 C 0,0 km/h (0 Bft)
09.08.2020 04:12 22,7 C 13,7 C 13,5 C 23,1 C 68 % 86 % 1016,2 hPa 0,0 l/m 0,8 km/h (0 Bft) N 360 11,4 C 13,7 C 0,0 km/h (0 Bft)
09.08.2020 04:10 22,7 C 13,7 C 13,6 C 23,1 C 68 % 86 % 1016,2 hPa 0,0 l/m 0,8 km/h (0 Bft) N 360 11,4 C 13,7 C 0,0 km/h (0 Bft)
09.08.2020 04:08 22,7 C 13,7 C 13,6 C 23,1 C 68 % 86 % 1016,2 hPa 0,0 l/m 0,8 km/h (0 Bft) N 360 11,4 C 13,7 C 2,5 km/h (1 Bft)
09.08.2020 04:06 22,7 C 13,7 C 13,4 C 23,1 C 68 % 86 % 1016,2 hPa 0,0 l/m 2,3 km/h (1 Bft) N 360 11,4 C 13,7 C 2,5 km/h (1 Bft)
09.08.2020 04:04 22,7 C 13,8 C 13,4 C 23,1 C 69 % 86 % 1016,2 hPa 0,0 l/m 2,3 km/h (1 Bft) N 360 11,5 C 13,8 C 2,5 km/h (1 Bft)
09.08.2020 04:02 22,7 C 13,8 C 13,6 C 23,1 C 69 % 86 % 1016,1 hPa 0,0 l/m 2,3 km/h (1 Bft) N 360 11,5 C 13,8 C 2,5 km/h (1 Bft)
09.08.2020 04:00 22,7 C 13,8 C 13,6 C 23,1 C 68 % 86 % 1016,1 hPa 0,0 l/m 2,3 km/h (1 Bft) N 360 11,5 C 13,8 C 2,5 km/h (1 Bft)
09.08.2020 03:58 22,7 C 13,8 C 13,8 C 23,1 C 68 % 86 % 1016,1 hPa 0,0 l/m 2,3 km/h (1 Bft) N 360 11,5 C 13,8 C 2,5 km/h (1 Bft)
09.08.2020 03:56 22,8 C 13,9 C 13,8 C 23,1 C 69 % 86 % 1016,1 hPa 0,0 l/m 2,3 km/h (1 Bft) N 360 11,6 C 13,9 C 2,7 km/h (1 Bft)
09.08.2020 03:54 22,8 C 13,9 C 13,7 C 23,1 C 68 % 86 % 1016,1 hPa 0,0 l/m 0,8 km/h (0 Bft) N-NW 337 11,6 C 13,9 C 2,7 km/h (1 Bft)
09.08.2020 03:52 22,8 C 13,9 C 13,8 C 23,2 C 69 % 86 % 1016,1 hPa 0,0 l/m 0,8 km/h (0 Bft) N-NW 337 11,6 C 13,9 C 2,7 km/h (1 Bft)
09.08.2020 03:50 22,8 C 13,9 C 13,8 C 23,2 C 69 % 86 % 1016,1 hPa 0,0 l/m 0,8 km/h (0 Bft) N-NW 337 11,6 C 13,9 C 2,7 km/h (1 Bft)
09.08.2020 03:48 22,8 C 14,0 C 14,1 C 23,2 C 69 % 86 % 1016,1 hPa 0,0 l/m 0,8 km/h (0 Bft) N-NW 337 11,7 C 14,0 C 2,7 km/h (1 Bft)
09.08.2020 03:46 22,8 C 14,0 C 14,1 C 23,2 C 69 % 86 % 1016,1 hPa 0,0 l/m 0,8 km/h (0 Bft) N-NW 337 11,7 C 14,0 C 3,7 km/h (1 Bft)
09.08.2020 03:44 22,8 C 14,0 C 14,1 C 23,2 C 69 % 86 % 1016,1 hPa 0,0 l/m 0,6 km/h (0 Bft) N-NW 337 11,7 C 14,0 C 3,7 km/h (1 Bft)
09.08.2020 03:42 22,8 C 14,0 C 14,0 C 23,2 C 69 % 86 % 1016,2 hPa 0,0 l/m 0,0 km/h (0 Bft) N 360 11,7 C 14,0 C 0,0 km/h (0 Bft)
09.08.2020 03:40 22,8 C 14,0 C 14,0 C 23,2 C 69 % 86 % 1016,2 hPa 0,0 l/m 0,0 km/h (0 Bft) N 360 11,7 C 14,0 C 0,0 km/h (0 Bft)
09.08.2020 03:38 22,8 C 14,1 C 13,9 C 23,2 C 69 % 86 % 1016,2 hPa 0,0 l/m 0,2 km/h (0 Bft) N 360 11,8 C 14,1 C 0,0 km/h (0 Bft)
09.08.2020 03:36 22,8 C 14,1 C 13,9 C 23,2 C 69 % 86 % 1016,2 hPa 0,0 l/m 0,2 km/h (0 Bft) N 360 11,8 C 14,1 C 0,0 km/h (0 Bft)
09.08.2020 03:34 22,8 C 14,2 C 13,9 C 23,3 C 69 % 86 % 1016,2 hPa 0,0 l/m 0,2 km/h (0 Bft) N 360 11,9 C 14,2 C 0,0 km/h (0 Bft)
09.08.2020 03:32 22,8 C 14,2 C 14,0 C 23,3 C 69 % 86 % 1016,2 hPa 0,0 l/m 0,2 km/h (0 Bft) N 360 11,9 C 14,2 C 0,0 km/h (0 Bft)
09.08.2020 03:30 22,8 C 14,2 C 14,2 C 23,3 C 69 % 86 % 1016,2 hPa 0,0 l/m 0,2 km/h (0 Bft) N 360 11,9 C 14,2 C 0,0 km/h (0 Bft)
09.08.2020 03:28 22,8 C 14,3 C 13,9 C 23,3 C 69 % 86 % 1016,2 hPa 0,0 l/m 0,2 km/h (0 Bft) N 360 12,0 C 14,3 C 0,0 km/h (0 Bft)
09.08.2020 03:26 22,8 C 14,3 C 13,9 C 23,3 C 69 % 86 % 1016,2 hPa 0,0 l/m 0,5 km/h (0 Bft) N-NO 22 12,0 C 14,3 C 0,0 km/h (0 Bft)
09.08.2020 03:24 22,8 C 14,3 C 13,9 C 23,3 C 69 % 86 % 1016,2 hPa 0,0 l/m 0,0 km/h (0 Bft) N 360 12,0 C 14,3 C 0,0 km/h (0 Bft)
09.08.2020 03:22 22,8 C 14,3 C 14,0 C 23,3 C 69 % 86 % 1016,1 hPa 0,0 l/m 0,0 km/h (0 Bft) N 360 12,0 C 14,3 C 0,0 km/h (0 Bft)
09.08.2020 03:20 22,8 C 14,3 C 14,0 C 23,3 C 69 % 86 % 1016,1 hPa 0,0 l/m 0,0 km/h (0 Bft) N 360 12,0 C 14,3 C 0,0 km/h (0 Bft)
09.08.2020 03:18 22,8 C 14,3 C 14,0 C 23,3 C 69 % 86 % 1016,1 hPa 0,0 l/m 0,0 km/h (0 Bft) N 360 12,0 C 14,3 C 0,0 km/h (0 Bft)
09.08.2020 03:16 22,8 C 14,3 C 14,0 C 23,4 C 69 % 86 % 1016,1 hPa 0,0 l/m 0,0 km/h (0 Bft) N 360 12,0 C 14,3 C 0,0 km/h (0 Bft)
09.08.2020 03:14 22,8 C 14,3 C 13,9 C 23,4 C 69 % 86 % 1016,1 hPa 0,0 l/m 0,0 km/h (0 Bft) N 360 12,0 C 14,3 C 0,0 km/h (0 Bft)
09.08.2020 03:12 22,8 C 14,3 C 14,1 C 23,4 C 69 % 86 % 1016,1 hPa 0,0 l/m 0,0 km/h (0 Bft) N 360 12,0 C 14,3 C 0,0 km/h (0 Bft)
09.08.2020 03:10 22,8 C 14,4 C 14,3 C 23,4 C 69 % 86 % 1016,1 hPa 0,0 l/m 0,0 km/h (0 Bft) N-NW 337 12,1 C 14,4 C 0,0 km/h (0 Bft)
09.08.2020 03:08 22,8 C 14,4 C 14,2 C 23,4 C 69 % 86 % 1016,1 hPa 0,0 l/m 0,0 km/h (0 Bft) N-NW 337 12,1 C 14,4 C 0,0 km/h (0 Bft)
09.08.2020 03:06 22,8 C 14,4 C 14,2 C 23,4 C 69 % 86 % 1016,1 hPa 0,0 l/m 0,0 km/h (0 Bft) N-NW 337 12,1 C 14,4 C 0,0 km/h (0 Bft)
09.08.2020 03:04 22,8 C 14,5 C 14,4 C 23,4 C 69 % 86 % 1016,1 hPa 0,0 l/m 0,0 km/h (0 Bft) N-NW 337 12,2 C 14,5 C 0,0 km/h (0 Bft)
09.08.2020 03:02 22,8 C 14,5 C 14,6 C 23,4 C 69 % 86 % 1016,1 hPa 0,0 l/m 0,0 km/h (0 Bft) N-NW 337 12,2 C 14,5 C 0,0 km/h (0 Bft)
09.08.2020 03:00 22,8 C 14,5 C 14,6 C 23,4 C 69 % 86 % 1016,1 hPa 0,0 l/m 0,0 km/h (0 Bft) N-NW 337 12,2 C 14,5 C 0,0 km/h (0 Bft)
09.08.2020 02:58 22,8 C 14,5 C 14,6 C 23,5 C 69 % 86 % 1016,1 hPa 0,0 l/m 0,0 km/h (0 Bft) NW 315 12,2 C 14,5 C 0,0 km/h (0 Bft)
09.08.2020 02:56 22,8 C 14,5 C 14,6 C 23,5 C 69 % 86 % 1016,1 hPa 0,0 l/m 0,0 km/h (0 Bft) NW 315 12,2 C 14,5 C 0,0 km/h (0 Bft)
09.08.2020 02:54 22,8 C 14,5 C 14,6 C 23,5 C 69 % 86 % 1016,1 hPa 0,0 l/m 0,0 km/h (0 Bft) N-NW 337 12,2 C 14,5 C 0,0 km/h (0 Bft)
09.08.2020 02:52 22,8 C 14,5 C 14,7 C 23,5 C 69 % 86 % 1016,1 hPa 0,0 l/m 0,0 km/h (0 Bft) NW 315 12,2 C 14,5 C 0,0 km/h (0 Bft)
09.08.2020 02:50 22,8 C 14,5 C 14,6 C 23,5 C 69 % 86 % 1016,1 hPa 0,0 l/m 0,5 km/h (0 Bft) N-NW 337 12,2 C 14,5 C 0,0 km/h (0 Bft)
09.08.2020 02:48 22,8 C 14,5 C 14,6 C 23,5 C 69 % 86 % 1016,1 hPa 0,0 l/m 0,5 km/h (0 Bft) O-NO 67 12,2 C 14,5 C 2,3 km/h (1 Bft)
09.08.2020 02:46 22,8 C 14,5 C 14,5 C 23,5 C 69 % 86 % 1016,1 hPa 0,0 l/m 2,4 km/h (1 Bft) N 360 12,2 C 14,5 C 2,3 km/h (1 Bft)
09.08.2020 02:44 22,9 C 14,5 C 14,5 C 23,5 C 69 % 85 % 1016,1 hPa 0,0 l/m 2,4 km/h (1 Bft) N 360 12,0 C 14,5 C 2,3 km/h (1 Bft)
09.08.2020 02:42 22,9 C 14,6 C 14,4 C 23,5 C 69 % 85 % 1016,1 hPa 0,0 l/m 2,4 km/h (1 Bft) N 360 12,1 C 14,6 C 2,3 km/h (1 Bft)
09.08.2020 02:40 22,9 C 14,6 C 14,6 C 23,6 C 69 % 85 % 1016,1 hPa 0,0 l/m 2,4 km/h (1 Bft) N 360 12,1 C 14,6 C 4,6 km/h (1 Bft)
09.08.2020 02:38 22,9 C 14,7 C 14,6 C 23,6 C 69 % 85 % 1016,1 hPa 0,0 l/m 1,4 km/h (1 Bft) N-NW 337 12,2 C 14,7 C 4,6 km/h (1 Bft)
09.08.2020 02:36 22,8 C 14,7 C 14,5 C 23,6 C 69 % 85 % 1016,1 hPa 0,0 l/m 1,4 km/h (1 Bft) N-NW 337 12,2 C 14,7 C 4,6 km/h (1 Bft)
09.08.2020 02:34 22,8 C 14,7 C 14,5 C 23,6 C 69 % 85 % 1016,1 hPa 0,0 l/m 1,4 km/h (1 Bft) N-NW 337 12,2 C 14,7 C 4,6 km/h (1 Bft)
09.08.2020 02:32 22,8 C 14,7 C 14,6 C 23,6 C 69 % 85 % 1016,1 hPa 0,0 l/m 1,0 km/h (0 Bft) N-NW 337 12,2 C 14,7 C 3,1 km/h (1 Bft)
09.08.2020 02:30 22,8 C 14,8 C 14,6 C 23,6 C 69 % 85 % 1016,1 hPa 0,0 l/m 1,1 km/h (1 Bft) N-NW 337 12,3 C 14,8 C 3,1 km/h (1 Bft)
09.08.2020 02:28 22,9 C 14,9 C 14,6 C 23,6 C 69 % 85 % 1016,1 hPa 0,0 l/m 1,3 km/h (1 Bft) NO 45 12,4 C 14,9 C 2,7 km/h (1 Bft)
09.08.2020 02:26 22,8 C 14,9 C 14,6 C 23,6 C 69 % 85 % 1016,1 hPa 0,0 l/m 1,3 km/h (1 Bft) NO 45 12,4 C 14,9 C 2,7 km/h (1 Bft)
09.08.2020 02:24 22,8 C 14,9 C 14,6 C 23,7 C 69 % 85 % 1016,1 hPa 0,0 l/m 1,3 km/h (1 Bft) NO 45 12,4 C 14,9 C 2,7 km/h (1 Bft)
09.08.2020 02:22 22,8 C 15,0 C 14,6 C 23,7 C 69 % 85 % 1016,6 hPa 0,0 l/m 1,1 km/h (1 Bft) N-NO 22 12,5 C 15,0 C 2,1 km/h (1 Bft)
09.08.2020 02:20 22,9 C 15,1 C 14,7 C 23,7 C 69 % 85 % 1016,6 hPa 0,0 l/m 1,1 km/h (1 Bft) N-NO 22 12,6 C 15,1 C 2,7 km/h (1 Bft)
09.08.2020 02:18 22,9 C 15,1 C 14,6 C 23,7 C 69 % 85 % 1016,6 hPa 0,0 l/m 0,8 km/h (0 Bft) N 360 12,6 C 15,1 C 2,7 km/h (1 Bft)
09.08.2020 02:16 22,9 C 15,1 C 14,7 C 23,7 C 69 % 85 % 1016,6 hPa 0,0 l/m 1,6 km/h (1 Bft) N-NO 22 12,6 C 15,1 C 0,0 km/h (0 Bft)
09.08.2020 02:14 22,9 C 15,2 C 14,6 C 23,7 C 69 % 85 % 1016,6 hPa 0,0 l/m 1,6 km/h (1 Bft) N-NO 22 12,7 C 15,2 C 0,0 km/h (0 Bft)
09.08.2020 02:12 22,9 C 15,2 C 14,7 C 23,7 C 69 % 85 % 1016,6 hPa 0,0 l/m 2,1 km/h (1 Bft) N 360 12,7 C 15,2 C 6,2 km/h (2 Bft)
09.08.2020 02:10 22,8 C 15,3 C 14,9 C 23,6 C 69 % 85 % 1016,6 hPa 0,0 l/m 1,6 km/h (1 Bft) O-NO 67 12,8 C 15,3 C 6,2 km/h (2 Bft)
09.08.2020 02:08 22,9 C 15,3 C 14,9 C 23,6 C 69 % 85 % 1016,6 hPa 0,0 l/m 1,6 km/h (1 Bft) O-NO 67 12,8 C 15,3 C 6,2 km/h (2 Bft)
09.08.2020 02:06 22,9 C 15,3 C 14,8 C 23,7 C 69 % 85 % 1016,6 hPa 0,0 l/m 1,6 km/h (1 Bft) O-NO 67 12,8 C 15,3 C 6,2 km/h (2 Bft)
09.08.2020 02:04 22,9 C 15,3 C 14,8 C 23,7 C 69 % 85 % 1016,6 hPa 0,0 l/m 1,6 km/h (1 Bft) O-NO 67 12,8 C 15,3 C 6,2 km/h (2 Bft)
09.08.2020 02:02 22,9 C 15,4 C 14,8 C 23,7 C 69 % 85 % 1016,6 hPa 0,0 l/m 1,1 km/h (1 Bft) O-NO 67 12,9 C 15,4 C 3,9 km/h (1 Bft)
09.08.2020 02:00 22,9 C 15,4 C 15,0 C 23,7 C 69 % 85 % 1016,6 hPa 0,0 l/m 0,3 km/h (0 Bft) N-NO 22 12,9 C 15,4 C 0,0 km/h (0 Bft)
09.08.2020 01:58 22,9 C 15,5 C 15,3 C 23,7 C 69 % 85 % 1016,6 hPa 0,0 l/m 0,3 km/h (0 Bft) N-NO 22 13,0 C 15,5 C 0,0 km/h (0 Bft)
09.08.2020 01:56 22,9 C 15,5 C 15,2 C 23,7 C 69 % 85 % 1016,6 hPa 0,0 l/m 0,3 km/h (0 Bft) N-NO 22 13,0 C 15,5 C 0,0 km/h (0 Bft)
09.08.2020 01:54 22,9 C 15,5 C 14,9 C 23,7 C 69 % 85 % 1016,6 hPa 0,0 l/m 0,5 km/h (0 Bft) N-NO 22 13,0 C 15,5 C 0,0 km/h (0 Bft)
09.08.2020 01:52 22,9 C 15,5 C 14,9 C 23,7 C 70 % 85 % 1016,6 hPa 0,0 l/m 1,1 km/h (1 Bft) N-NW 337 13,0 C 15,5 C 0,0 km/h (0 Bft)
09.08.2020 01:50 22,9 C 15,4 C 15,1 C 23,7 C 69 % 85 % 1016,6 hPa 0,0 l/m 1,1 km/h (1 Bft) N-NW 337 12,9 C 15,4 C 0,0 km/h (0 Bft)
09.08.2020 01:48 22,9 C 15,3 C 15,3 C 23,8 C 69 % 85 % 1016,6 hPa 0,0 l/m 1,1 km/h (1 Bft) N-NW 337 12,8 C 15,3 C 0,0 km/h (0 Bft)
09.08.2020 01:46 22,9 C 15,3 C 15,5 C 23,8 C 69 % 85 % 1016,6 hPa 0,0 l/m 1,1 km/h (1 Bft) N-NW 337 12,8 C 15,3 C 4,2 km/h (1 Bft)
09.08.2020 01:44 22,9 C 15,3 C 15,3 C 23,8 C 69 % 85 % 1016,6 hPa 0,0 l/m 1,1 km/h (1 Bft) N-NW 337 12,8 C 15,3 C 3,9 km/h (1 Bft)
09.08.2020 01:42 22,9 C 15,3 C 15,1 C 23,8 C 70 % 85 % 1016,4 hPa 0,0 l/m 0,8 km/h (0 Bft) N-NW 337 12,8 C 15,3 C 3,9 km/h (1 Bft)
09.08.2020 01:40 22,9 C 15,4 C 15,4 C 23,8 C 70 % 85 % 1016,4 hPa 0,0 l/m 0,0 km/h (0 Bft) N 360 12,9 C 15,4 C 0,0 km/h (0 Bft)
09.08.2020 01:38 22,9 C 15,4 C 15,5 C 23,8 C 70 % 85 % 1016,4 hPa 0,0 l/m 0,0 km/h (0 Bft) N 360 12,9 C 15,4 C 0,0 km/h (0 Bft)
09.08.2020 01:36 22,9 C 15,4 C 15,3 C 23,8 C 70 % 85 % 1016,4 hPa 0,0 l/m 0,0 km/h (0 Bft) N 360 12,9 C 15,4 C 0,0 km/h (0 Bft)
09.08.2020 01:34 22,9 C 15,5 C 15,2 C 23,8 C 70 % 85 % 1016,4 hPa 0,0 l/m 0,0 km/h (0 Bft) N 360 13,0 C 15,5 C 0,0 km/h (0 Bft)
09.08.2020 01:32 22,9 C 15,5 C 15,2 C 23,9 C 70 % 84 % 1016,4 hPa 0,0 l/m 0,0 km/h (0 Bft) N-NW 337 12,8 C 15,5 C 0,0 km/h (0 Bft)
09.08.2020 01:30 22,9 C 15,5 C 15,3 C 23,9 C 70 % 84 % 1016,4 hPa 0,0 l/m 0,0 km/h (0 Bft) N-NW 337 12,8 C 15,5 C 0,0 km/h (0 Bft)
09.08.2020 01:28 22,9 C 15,5 C 15,3 C 23,9 C 70 % 84 % 1016,4 hPa 0,0 l/m 0,0 km/h (0 Bft) S-SO 157 12,8 C 15,5 C 0,0 km/h (0 Bft)
09.08.2020 01:26 22,9 C 15,5 C 15,5 C 23,9 C 70 % 84 % 1016,4 hPa 0,0 l/m 0,0 km/h (0 Bft) S-SO 157 12,8 C 15,5 C 0,0 km/h (0 Bft)
09.08.2020 01:24 22,9 C 15,5 C 15,3 C 23,9 C 70 % 84 % 1016,4 hPa 0,0 l/m 0,0 km/h (0 Bft) S-SO 157 12,8 C 15,5 C 0,0 km/h (0 Bft)
09.08.2020 01:22 22,9 C 15,5 C 15,5 C 23,9 C 70 % 84 % 1016,6 hPa 0,0 l/m 0,0 km/h (0 Bft) S-SO 157 12,8 C 15,5 C 0,0 km/h (0 Bft)
09.08.2020 01:20 22,9 C 15,4 C 15,7 C 23,9 C 70 % 84 % 1016,6 hPa 0,0 l/m 0,0 km/h (0 Bft) S-SO 157 12,7 C 15,4 C 0,0 km/h (0 Bft)
09.08.2020 01:18 22,9 C 15,3 C 15,2 C 23,9 C 70 % 84 % 1016,6 hPa 0,0 l/m 0,0 km/h (0 Bft) S-SO 157 12,6 C 15,3 C 0,0 km/h (0 Bft)
09.08.2020 01:16 22,9 C 15,4 C 15,1 C 23,9 C 70 % 84 % 1016,6 hPa 0,0 l/m 0,0 km/h (0 Bft) S-SO 157 12,7 C 15,4 C 0,0 km/h (0 Bft)
09.08.2020 01:14 22,9 C 15,4 C 15,2 C 24,0 C 70 % 84 % 1016,6 hPa 0,0 l/m 0,0 km/h (0 Bft) S 180 12,7 C 15,4 C 0,0 km/h (0 Bft)
09.08.2020 01:12 22,9 C 15,4 C 15,1 C 24,0 C 70 % 84 % 1016,6 hPa 0,0 l/m 0,0 km/h (0 Bft) S 180 12,7 C 15,4 C 0,0 km/h (0 Bft)
09.08.2020 01:10 22,9 C 15,4 C 15,1 C 24,0 C 70 % 84 % 1016,6 hPa 0,0 l/m 0,0 km/h (0 Bft) N-NW 337 12,7 C 15,4 C 0,0 km/h (0 Bft)
09.08.2020 01:08 22,9 C 15,4 C 15,2 C 24,0 C 70 % 84 % 1016,6 hPa 0,0 l/m 0,2 km/h (0 Bft) NW 315 12,7 C 15,4 C 0,0 km/h (0 Bft)
09.08.2020 01:06 22,9 C 15,4 C 15,2 C 24,0 C 70 % 84 % 1016,6 hPa 0,0 l/m 0,5 km/h (0 Bft) NW 315 12,7 C 15,4 C 0,0 km/h (0 Bft)
09.08.2020 01:04 23,0 C 15,4 C 15,1 C 24,0 C 70 % 84 % 1016,6 hPa 0,0 l/m 0,5 km/h (0 Bft) N-NW 337 12,7 C 15,4 C 0,0 km/h (0 Bft)
09.08.2020 01:02 22,9 C 15,5 C 15,2 C 24,0 C 70 % 84 % 1016,6 hPa 0,0 l/m 0,5 km/h (0 Bft) N-NW 337 12,8 C 15,5 C 0,0 km/h (0 Bft)
09.08.2020 01:00 22,9 C 15,5 C 15,2 C 24,0 C 70 % 84 % 1016,6 hPa 0,0 l/m 0,8 km/h (0 Bft) N-NW 337 12,8 C 15,5 C 2,5 km/h (1 Bft)
09.08.2020 00:58 22,9 C 15,5 C 15,2 C 24,1 C 70 % 83 % 1016,6 hPa 0,0 l/m 1,3 km/h (1 Bft) N-NW 337 12,6 C 15,5 C 2,7 km/h (1 Bft)
09.08.2020 00:56 22,9 C 15,5 C 15,2 C 24,1 C 70 % 83 % 1016,6 hPa 0,0 l/m 1,3 km/h (1 Bft) N-NW 337 12,6 C 15,5 C 2,7 km/h (1 Bft)
09.08.2020 00:54 22,9 C 15,5 C 15,3 C 24,1 C 70 % 83 % 1016,6 hPa 0,0 l/m 1,4 km/h (1 Bft) NW 315 12,6 C 15,5 C 0,0 km/h (0 Bft)
09.08.2020 00:52 23,0 C 15,6 C 15,3 C 24,1 C 70 % 83 % 1016,6 hPa 0,0 l/m 1,9 km/h (1 Bft) NW 315 12,7 C 15,6 C 2,3 km/h (1 Bft)
09.08.2020 00:50 23,0 C 15,6 C 15,2 C 24,1 C 70 % 83 % 1016,6 hPa 0,0 l/m 2,4 km/h (1 Bft) N-NW 337 12,7 C 15,6 C 3,7 km/h (1 Bft)
09.08.2020 00:48 23,0 C 15,6 C 15,1 C 24,1 C 70 % 83 % 1016,6 hPa 0,0 l/m 2,1 km/h (1 Bft) N-NW 337 12,7 C 15,6 C 3,7 km/h (1 Bft)
09.08.2020 00:46 23,0 C 15,6 C 15,1 C 24,1 C 70 % 83 % 1016,6 hPa 0,0 l/m 1,6 km/h (1 Bft) NW 315 12,7 C 15,6 C 4,1 km/h (1 Bft)
09.08.2020 00:44 23,0 C 15,6 C 15,2 C 24,2 C 70 % 83 % 1016,6 hPa 0,0 l/m 1,4 km/h (1 Bft) NW 315 12,7 C 15,6 C 3,3 km/h (1 Bft)
09.08.2020 00:42 23,0 C 15,7 C 15,2 C 24,2 C 70 % 83 % 1016,6 hPa 0,0 l/m 0,8 km/h (0 Bft) NW 315 12,8 C 15,7 C 3,7 km/h (1 Bft)
09.08.2020 00:40 23,0 C 15,7 C 15,3 C 24,2 C 70 % 83 % 1016,6 hPa 0,0 l/m 0,5 km/h (0 Bft) NW 315 12,8 C 15,7 C 3,7 km/h (1 Bft)
09.08.2020 00:38 23,0 C 15,7 C 15,5 C 24,2 C 70 % 83 % 1016,6 hPa 0,0 l/m 0,0 km/h (0 Bft) SW 225 12,8 C 15,7 C 0,0 km/h (0 Bft)
09.08.2020 00:36 23,0 C 15,7 C 15,2 C 24,2 C 70 % 83 % 1016,6 hPa 0,0 l/m 0,0 km/h (0 Bft) SW 225 12,8 C 15,7 C 0,0 km/h (0 Bft)
09.08.2020 00:34 23,0 C 15,8 C 15,2 C 24,2 C 70 % 83 % 1016,6 hPa 0,0 l/m 0,0 km/h (0 Bft) SW 225 12,9 C 15,8 C 0,0 km/h (0 Bft)
09.08.2020 00:32 23,0 C 15,8 C 15,3 C 24,3 C 70 % 83 % 1016,6 hPa 0,0 l/m 0,0 km/h (0 Bft) SW 225 12,9 C 15,8 C 0,0 km/h (0 Bft)
09.08.2020 00:30 23,0 C 15,8 C 15,5 C 24,3 C 70 % 83 % 1016,6 hPa 0,0 l/m 0,0 km/h (0 Bft) SW 225 12,9 C 15,8 C 0,0 km/h (0 Bft)
09.08.2020 00:28 23,0 C 15,8 C 15,4 C 24,3 C 70 % 83 % 1016,6 hPa 0,0 l/m 0,0 km/h (0 Bft) SW 225 12,9 C 15,8 C 0,0 km/h (0 Bft)
09.08.2020 00:26 23,0 C 15,8 C 15,5 C 24,3 C 70 % 83 % 1016,6 hPa 0,0 l/m 0,0 km/h (0 Bft) SW 225 12,9 C 15,8 C 0,0 km/h (0 Bft)
09.08.2020 00:24 23,0 C 15,8 C 15,5 C 24,3 C 70 % 83 % 1016,6 hPa 0,0 l/m 0,0 km/h (0 Bft) SW 225 12,9 C 15,8 C 0,0 km/h (0 Bft)
09.08.2020 00:22 23,0 C 15,8 C 15,4 C 24,3 C 70 % 83 % 1016,6 hPa 0,0 l/m 0,0 km/h (0 Bft) SW 225 12,9 C 15,8 C 0,0 km/h (0 Bft)
09.08.2020 00:20 23,0 C 15,8 C 15,5 C 24,3 C 70 % 83 % 1016,6 hPa 0,0 l/m 0,0 km/h (0 Bft) SW 225 12,9 C 15,8 C 0,0 km/h (0 Bft)
09.08.2020 00:18 23,0 C 15,9 C 15,6 C 24,3 C 70 % 83 % 1016,6 hPa 0,0 l/m 0,0 km/h (0 Bft) SW 225 13,0 C 15,9 C 0,0 km/h (0 Bft)
09.08.2020 00:16 23,0 C 15,9 C 15,7 C 24,3 C 70 % 83 % 1016,6 hPa 0,0 l/m 0,0 km/h (0 Bft) SW 225 13,0 C 15,9 C 0,0 km/h (0 Bft)
09.08.2020 00:14 23,0 C 15,9 C 15,7 C 24,4 C 70 % 83 % 1016,6 hPa 0,0 l/m 0,0 km/h (0 Bft) SW 225 13,0 C 15,9 C 0,0 km/h (0 Bft)
09.08.2020 00:12 23,0 C 15,9 C 15,5 C 24,4 C 70 % 83 % 1016,6 hPa 0,0 l/m 0,2 km/h (0 Bft) SW 225 13,0 C 15,9 C 0,0 km/h (0 Bft)
09.08.2020 00:10 23,0 C 15,9 C 15,6 C 24,4 C 70 % 83 % 1016,6 hPa 0,0 l/m 0,2 km/h (0 Bft) SW 225 13,0 C 15,9 C 0,0 km/h (0 Bft)
09.08.2020 00:08 23,0 C 15,9 C 15,5 C 24,4 C 70 % 83 % 1016,6 hPa 0,0 l/m 0,2 km/h (0 Bft) SW 225 13,0 C 15,9 C 0,0 km/h (0 Bft)
09.08.2020 00:06 23,0 C 15,9 C 15,5 C 24,4 C 70 % 83 % 1016,6 hPa 0,0 l/m 0,5 km/h (0 Bft) SW 225 13,0 C 15,9 C 0,0 km/h (0 Bft)
09.08.2020 00:04 23,0 C 16,0 C 15,6 C 24,4 C 70 % 82 % 1016,6 hPa 0,0 l/m 1,0 km/h (0 Bft) SW 225 12,9 C 16,0 C 2,9 km/h (1 Bft)
09.08.2020 00:02 23,0 C 16,0 C 15,6 C 24,4 C 70 % 82 % 1016,6 hPa 0,0 l/m 1,3 km/h (1 Bft) SW 225 12,9 C 16,0 C 2,9 km/h (1 Bft)
09.08.2020 00:00 23,0 C 16,0 C 15,6 C 24,5 C 70 % 82 % 1016,6 hPa 0,0 l/m 1,3 km/h (1 Bft) SW 225 12,9 C 16,0 C 2,1 km/h (1 Bft)
_ Min-Zeit 06:26 06:08 06:04 07:44 03:54 09:30 02:24 - 00:14 - - 05:06 06:08 00:06
Minimum _ 22,4 C 12,8 C 12,8 C 22,2 C 68 % 71 % 1016,1 hPa - 0,0 km/h (0 Bft) - - 10,8 C 12,8 C 0,0 km/h (0 Bft)
_ Max-Zeit 09:08 09:40 09:32 00:00 00:00 06:00 08:04 00:00 00:50 - - 08:20 09:40 02:04
Maximum _ 23,2 C 22,3 C 27,4 C 24,5 C 70 % 88 % 1016,9 hPa 0,0 l/m 2,4 km/h
N-NW (1 Bft)
- - 17,1 C 22,3 C 6,2 km/h
O-NO (2 Bft)
Durchschnitt _ 22,8 C 15,5 C 16,3 C 23,0 C 69 % 84 % 1016,4 hPa #0,0 l/m 0,3 km/h (0 Bft) N - 12,9 C 15,5 C 0,6 km/h (0 Bft)